COSMOS 249 DEB, 6752

Orbit data source: Space-Track

COSMOS 249 DEB, 6752 is space debris in LEO originally from a launch on Sun, 20 Oct 1968 UTC launched from the Tyuratam Missile And Space Complex (TTMTR). Debris objects in space refer to the collection of defunct objects orbiting the Earth. Examples of debris include non-operational satellites, rocket bodies, and fragments generated from explosions, collisions, or faulty payload assembly.

Loading next visibility...
Identifier
6752, 1968-091CJ
Orbit
LEO
Country
Flag of CISCIS
Related business
Manufacturer
Unknown
Mission
Spacecraft
Bus & Motor
Unknown
Mass
Unknown
Launch date (UTC)
1968-10-20 (58 years ago)
Launch vehicle
Unknown
Launch site
Tyuratam Missile And Space Complex (TTMTR)
Object type
Payload
Rocket body
Debris
Shape & HBR
Unknown shape, 0.1 m
Radar Cross Section
Small (<0.1 m²)

Expand to show TLE details & history
Last TLE update: 23 hours ago

TLE from 23 hours ago
0 COSMOS 249 DEB
1 06752U 68091CJ  26126.72102922  .00002957  00000-0  26440-2 0  9997
2 06752  62.2752 244.8720 0648286 129.4675 236.5547 13.17184517653803
Epoch: 2026-05-06T17:18Z
TLE epoch observation values (Epoch: 2026-05-06T17:18:16.924Z)
Latitude
0.00002°
Longitude
120.72403°
Altitude
1,488.78 km
Speed
6.982 km/s
True Right ascension
16h 19m 29s
True Declination
0° 00' 00"
Sunlit
Object was in full shadow at epoch
Visualization orbit readout
Latitude
Unknown
Longitude
Unknown
Altitude
Unknown
Speed
Unknown
Apparent Right ascension
Unknown
Apparent Declination
Unknown
Sunlit
N/A
Visualization observer readout
Local Sidereal Time
00:31:31
Azimuth
Unknown
Elevation
Unknown
Doppler factor
Unknown
Orbital elements
Apogee altitude
1,685.393 km
Perigee altitude
703.55 km
Semi-major axis
7,572.609 km
Eccentricity
0.06483
Inclination
62.2752°
RAAN
244.872°
Arg. of periapsis
129.4675°
True anomaly
230.63195°
Mean anomaly
236.5547°
Eccentric anomaly
233.5663°
Mean motion
3.29363 °/min
Orbital period
109.3 mins
BSTAR
0.002644
Loading maneuver chart data...
Computing Atmospheric mass density...

Documentation

Showing up to 5 results
|